TimeCDT,TemperatureF,Dew PointF,Humidity,Sea Level PressureIn,VisibilityMPH,Wind Direction,Wind SpeedMPH,Gust SpeedMPH,PrecipitationIn,Events,Conditions,WindDirDegrees,DateUTC
12:52 AM,53.1,32.0,45,30.00,10.0,SW,11.5,-,N/A,,Clear,230,2012-10-30 05:52:00
1:52 AM,52.0,33.1,49,29.98,10.0,SW,12.7,-,N/A,,Clear,230,2012-10-30 06:52:00
2:52 AM,51.1,33.1,50,29.97,10.0,SW,11.5,-,N/A,,Clear,230,2012-10-30 07:52:00
3:52 AM,52.0,33.1,49,29.96,10.0,WSW,16.1,-,N/A,,Clear,250,2012-10-30 08:52:00
4:52 AM,50.0,33.1,52,29.95,10.0,WSW,12.7,-,N/A,,Clear,250,2012-10-30 09:52:00
5:52 AM,48.0,32.0,54,29.95,10.0,WSW,11.5,-,N/A,,Clear,250,2012-10-30 10:52:00
6:52 AM,46.0,32.0,58,29.96,10.0,West,9.2,-,N/A,,Clear,260,2012-10-30 11:52:00
7:52 AM,46.9,30.0,52,29.97,10.0,West,11.5,-,N/A,,Unknown,280,2012-10-30 12:52:00
8:52 AM,52.0,30.0,43,29.97,10.0,WNW,11.5,-,N/A,,Clear,290,2012-10-30 13:52:00
9:52 AM,59.0,33.1,38,29.97,10.0,NW,13.8,-,N/A,,Clear,310,2012-10-30 14:52:00
10:52 AM,66.9,35.1,31,29.96,10.0,NNW,12.7,19.6,N/A,,Clear,330,2012-10-30 15:52:00
11:52 AM,70.0,36.0,29,29.95,10.0,NW,13.8,-,N/A,,Clear,320,2012-10-30 16:52:00
12:52 PM,75.0,36.0,24,29.93,10.0,WNW,12.7,17.3,N/A,,Clear,300,2012-10-30 17:52:00
1:52 PM,78.1,36.0,22,29.91,10.0,NNW,15.0,21.9,N/A,,Clear,340,2012-10-30 18:52:00
2:52 PM,78.1,36.0,22,29.89,10.0,NNW,17.3,26.5,N/A,,Clear,340,2012-10-30 19:52:00
3:52 PM,77.0,37.9,24,29.89,10.0,North,19.6,25.3,N/A,,Clear,10,2012-10-30 20:52:00
4:52 PM,75.9,37.9,25,29.90,10.0,North,17.3,21.9,N/A,,Clear,10,2012-10-30 21:52:00
5:52 PM,73.4,37.4,27,29.96,10.0,NNE,16.1,-,N/A,,Clear,20,2012-10-30 22:52:00
6:52 PM,62.6,37.4,39,29.98,9.0,North,4.6,-,N/A,,Clear,350,2012-10-30 23:52:00
7:52 PM,53.1,36.0,52,29.99,10.0,North,8.1,-,N/A,,Clear,10,2012-10-31 00:52:00
8:52 PM,48.9,35.1,59,30.01,10.0,North,6.9,-,N/A,,Clear,360,2012-10-31 01:52:00
9:52 PM,48.0,35.1,61,30.02,10.0,NNE,4.6,-,N/A,,Clear,20,2012-10-31 02:52:00
10:52 PM,48.0,35.1,61,30.01,10.0,Calm,Calm,-,N/A,,Clear,0,2012-10-31 03:52:00
11:52 PM,45.0,34.0,65,30.00,10.0,Calm,Calm,-,N/A,,Clear,0,2012-10-31 04:52:00